FW1907 Weather Reports


time (UTC)temp
C
wind
direction
speed
KPH
gust
KPH
rain 1hr
cm
rain 24hr
cm
rain mn
cm
humidity
%
barometer
mb
20260502205305 19 357 0.0 0.0 0.00 0.00 0.00 24 1016.9
20260502205144 19 338 0.0 0.0 0.00 0.00 0.00 27 1017.0
20260502204303 19 306 0.0 0.0 0.00 0.00 0.00 26 1017.1
20260502203801 19 0 0.0 0.0 0.00 0.00 0.00 26 1017.1
20260502203302 19 17 0.0 0.0 0.00 0.00 0.00 27 1017.2
20260502202802 19 351 0.0 0.0 0.00 0.00 0.00 26 1017.4
20260502202645 19 8 0.0 0.0 0.00 0.00 0.00 26 1017.4
20260502201759 19 323 0.0 0.0 0.00 0.00 0.00 26 1017.5
20260502201301 18 300 0.0 0.0 0.00 0.00 0.00 25 1017.5
20260502200802 18 24 0.0 0.0 0.00 0.00 0.00 26 1017.5
20260502200259 18 348 0.0 0.0 0.00 0.00 0.00 26 1017.6
20260502195759 19 288 0.0 0.0 0.00 0.00 0.00 26 1017.6
20260502195300 19 296 0.0 0.0 0.00 0.00 0.00 27 1017.6
20260502195137 18 276 0.0 0.0 0.00 0.00 0.00 26 1017.8
20260502194300 18 324 0.0 0.0 0.00 0.00 0.00 25 1017.8
20260502193759 18 326 0.0 0.0 0.00 0.00 0.00 26 1017.8
20260502193300 18 290 0.0 0.0 0.00 0.00 0.00 24 1017.8
20260502192800 18 307 0.0 0.0 0.00 0.00 0.00 25 1017.9
20260502192259 18 21 0.0 0.0 0.00 0.00 0.00 27 1017.9
20260502191759 18 261 0.0 0.0 0.00 0.00 0.00 25 1018.1
20260502191259 18 255 0.0 0.0 0.00 0.00 0.00 25 1018.1
20260502190759 18 310 0.0 0.0 0.00 0.00 0.00 26 1018.2
20260502190635 18 269 0.0 0.0 0.00 0.00 0.00 25 1018.4
20260502185800 18 285 0.0 0.0 0.00 0.00 0.00 27 1018.4
20260502185258 18 23 0.0 0.0 0.00 0.00 0.00 27 1018.4
20260502184759 18 24 0.0 0.0 0.00 0.00 0.00 30 1018.5
20260502184259 17 300 0.0 0.0 0.00 0.00 0.00 30 1018.5
20260502183759 17 343 0.0 0.0 0.00 0.00 0.00 32 1018.6
20260502183258 17 296 0.0 0.0 0.00 0.00 0.00 30 1018.6
20260502183035 17 357 0.0 0.0 0.00 0.00 0.00 31 1018.9
20260502182923 17 331 0.0 0.0 0.00 0.00 0.00 29 1018.7
20260502181757 17 337 0.0 0.0 0.00 0.00 0.00 33 1018.9
20260502181258 17 312 0.0 0.0 0.00 0.00 0.00 33 1018.9
20260502180759 17 309 0.0 0.0 0.00 0.00 0.00 34 1019.0
20260502180258 17 286 0.0 0.0 0.00 0.00 0.00 32 1019.0
20260502164256 14 16 0.0 0.0 0.00 0.00 0.00 35 1019.4
20260502164142 14 293 0.0 0.0 0.00 0.00 0.00 35 1019.4
20260502163627 14 348 0.0 0.0 0.00 0.00 0.00 35 1019.5
20260502162756 14 0 0.0 0.0 0.00 0.00 0.00 34 1019.5
20260502162255 14 351 0.0 0.0 0.00 0.00 0.00 35 1019.5
20260502161755 14 341 0.0 0.0 0.00 0.00 0.00 35 1019.5
20260502161254 14 331 0.0 0.0 0.00 0.00 0.00 35 1019.5
20260502160755 14 27 0.0 0.0 0.00 0.00 0.00 34 1019.7
20260502160255 13 1 0.0 0.0 0.00 0.00 0.00 36 1019.7
20260502160141 13 314 0.0 0.0 0.00 0.00 0.00 36 1019.7
20260502151753 13 303 0.0 0.0 0.00 0.00 0.00 34 1019.9
20260502151254 13 73 0.0 0.0 0.00 0.00 0.00 34 1020.0
20260502151025 12 97 0.0 0.0 0.00 0.00 0.00 34 1020.0
20260502150917 13 73 0.0 0.0 0.00 0.00 0.00 33 1019.9
20260502150132 12 99 0.0 0.0 0.00 0.00 0.00 35 1020.0
20260502130249 5 144 0.0 0.0 0.00 0.00 0.00 58 1019.9
20260502123742 5 138 0.0 0.0 0.00 0.00 0.00 54 1019.7
20260502123241 4 135 0.0 0.0 0.00 0.00 0.00 55 1019.7
20260502122739 4 137 0.0 0.0 0.00 0.00 0.00 55 1019.5
20260502122237 5 137 0.0 0.0 0.00 0.00 0.00 55 1019.5
20260502121737 5 135 0.0 0.0 0.00 0.00 0.00 54 1019.5
20260502121238 5 135 0.0 0.0 0.00 0.00 0.00 54 1019.4
20260502120734 5 131 0.0 0.0 0.00 0.00 0.00 53 1019.5
20260502120233 5 134 0.0 0.0 0.00 0.00 0.00 53 1019.5
20260502115734 5 137 0.0 0.0 0.00 0.00 0.00 53 1019.5
20260502115233 5 151 0.0 0.0 0.00 0.00 0.00 53 1019.4
20260502115006 5 133 0.0 0.0 0.00 0.00 0.00 53 1019.4
20260502114859 5 149 0.0 0.0 0.00 0.00 0.00 53 1019.4
20260502113950 5 147 0.0 0.0 0.00 0.00 0.00 52 1019.4
20260502113849 5 142 0.0 0.0 0.00 0.00 0.00 52 1019.4
20260502112735 5 138 0.0 0.0 0.00 0.00 0.00 52 1019.4
20260502112232 5 140 0.0 0.0 0.00 0.00 0.00 53 1019.5
20260502111733 5 144 0.0 0.0 0.00 0.00 0.00 54 1019.5
20260502111616 4 144 0.0 0.0 0.00 0.00 0.00 55 1019.5
20260502110733 4 151 0.0 0.0 0.00 0.00 0.00 55 1019.5
20260502110232 5 149 0.0 0.0 0.00 0.00 0.00 54 1019.4
20260502105732 5 149 0.0 0.0 0.00 0.00 0.00 52 1019.4
20260502105233 5 149 0.0 0.0 0.00 0.00 0.00 51 1019.4
20260502105115 5 148 0.0 0.0 0.00 0.00 0.00 50 1019.4
20260502104234 5 148 0.0 0.0 0.00 0.00 0.00 50 1019.3
20260502103733 5 148 0.0 0.0 0.00 0.00 0.00 49 1019.3
20260502103233 6 148 0.0 0.0 0.00 0.00 0.00 49 1019.3
20260502102734 5 152 0.0 0.0 0.00 0.00 0.00 50 1019.3
20260502102233 5 152 0.0 0.0 0.00 0.00 0.00 50 1019.2
20260502101735 5 152 0.0 0.0 0.00 0.00 0.00 50 1019.2
20260502101234 5 155 0.0 0.0 0.00 0.00 0.00 50 1019.2
20260502100734 5 149 0.0 0.0 0.00 0.00 0.00 50 1019.1
20260502100610 6 157 0.0 0.0 0.00 0.00 0.00 50 1019.0
20260502090733 6 149 0.0 0.0 0.00 0.00 0.00 50 1019.1
20260502090231 6 148 0.0 0.0 0.00 0.00 0.00 49 1019.1
20260502090110 6 145 0.0 0.0 0.00 0.00 0.00 49 1019.0
20260502071231 8 164 0.0 0.0 0.00 0.00 0.00 42 1018.7
20260502071138 8 157 0.0 0.0 0.00 0.00 0.00 41 1018.7
20260502070232 8 159 0.0 0.0 0.00 0.00 0.00 41 1018.7
20260502065733 8 151 0.0 0.0 0.00 0.00 0.00 41 1018.7
20260502065231 8 154 0.0 0.0 0.00 0.00 0.00 41 1018.7
20260502064733 8 159 0.0 0.0 0.00 0.00 0.00 41 1018.6
20260502064232 8 151 0.0 0.0 0.00 0.00 0.00 40 1018.7
20260502063731 8 149 0.0 0.0 0.00 0.00 0.00 39 1018.7
20260502063232 8 161 0.0 0.0 0.00 0.00 0.00 39 1018.7
20260502062732 8 145 0.0 0.0 0.00 0.00 0.00 39 1018.6
20260502062232 8 144 0.0 0.0 0.00 0.00 0.00 39 1018.6
20260502061732 8 135 0.0 0.0 0.00 0.00 0.00 39 1018.6
20260502061231 9 138 0.0 0.0 0.00 0.00 0.00 39 1018.6
20260502060718 9 138 0.0 0.0 0.00 0.00 0.00 39 1018.6
20260502060212 9 147 0.0 0.0 0.00 0.00 0.00 39 1018.6
20260502055714 9 137 0.0 0.0 0.00 0.00 0.00 39 1018.6
20260502055213 9 128 0.0 0.0 0.00 0.00 0.00 39 1018.6
20260502054710 9 131 0.0 0.0 0.00 0.00 0.00 39 1018.7
20260502054213 9 138 0.0 0.0 0.00 0.00 0.00 39 1018.6
20260502053711 9 133 0.0 0.0 0.00 0.00 0.00 39 1018.6
20260502053208 9 124 0.0 0.0 0.00 0.00 0.00 39 1018.6
20260502052710 10 123 0.0 0.0 0.00 0.00 0.00 39 1018.6
20260502052209 10 134 0.0 0.0 0.00 0.00 0.00 38 1018.6
20260502051707 10 131 0.0 0.0 0.00 0.00 0.00 39 1018.7
20260502051209 10 130 0.0 0.0 0.00 0.00 0.00 38 1018.6
20260502050707 10 144 0.0 0.0 0.00 0.00 0.00 38 1018.7
20260502050208 10 130 0.0 0.0 0.00 0.00 0.00 38 1018.6
20260502050049 10 145 0.0 0.0 0.00 0.00 0.00 38 1018.7
20260502045209 10 128 0.0 0.0 0.00 0.00 0.00 38 1018.7
20260502044703 10 147 0.0 0.0 0.00 0.00 0.00 38 1018.7
20260502044206 10 149 0.0 0.0 0.00 0.00 0.00 37 1018.7
20260502043704 10 147 0.0 0.0 0.00 0.00 0.00 37 1018.7
20260502043203 10 128 0.0 0.0 0.00 0.00 0.00 36 1018.7
20260502042704 10 148 0.0 0.0 0.00 0.00 0.00 36 1018.7
20260502042204 10 123 0.0 0.0 0.00 0.00 0.00 36 1018.6
20260502041703 11 111 0.0 0.0 0.00 0.00 0.00 36 1018.7
20260502041203 11 141 0.0 0.0 0.00 0.00 0.00 36 1018.7
20260502040706 11 128 0.0 0.0 0.00 0.00 0.00 36 1018.6
20260502040202 11 130 0.0 0.0 0.00 0.00 0.00 36 1018.6
20260502040050 11 127 0.0 0.0 0.00 0.00 0.00 35 1018.6
20260502035203 11 117 0.0 0.0 0.00 0.00 0.00 35 1018.6
20260502034704 11 130 0.0 0.0 0.00 0.00 0.00 35 1018.6
20260502034206 11 121 0.0 0.0 0.00 0.00 0.00 36 1018.6
20260502033705 11 130 0.0 0.0 0.00 0.00 0.00 36 1018.6
20260502033640 12 125 0.0 0.0 0.00 0.00 0.00 39 1018.5
20260502033633 11 125 0.0 0.0 0.00 0.00 0.00 37 1018.5
20260502032823 11 116 0.0 0.0 0.00 0.00 0.00 38 1018.5
20260502031705 12 127 0.0 0.0 0.00 0.00 0.00 38 1018.4
20260502031549 12 118 0.0 0.0 0.00 0.00 0.00 38 1018.4
20260502030704 12 147 0.0 0.0 0.00 0.00 0.00 37 1018.3
20260502030547 12 133 0.0 0.0 0.00 0.00 0.00 35 1018.2
20260502025704 13 134 0.0 0.0 0.00 0.00 0.00 34 1018.1
20260502025204 14 138 0.0 0.0 0.00 0.00 0.00 32 1018.1
20260502024704 15 142 0.0 0.0 0.00 0.00 0.00 29 1018.2
20260502024204 16 145 0.0 0.0 0.00 0.00 0.00 23 1018.1
20260502023704 16 99 0.0 0.0 0.00 0.00 0.00 20 1018.1
20260502023205 17 99 0.0 0.0 0.00 0.00 0.00 21 1017.9
20260502022705 17 99 0.0 0.0 0.00 0.00 0.00 20 1018.1
20260502022203 17 99 0.0 0.0 0.00 0.00 0.00 19 1018.1
20260502021704 17 99 0.0 0.0 0.00 0.00 0.00 19 1017.9
20260502021205 18 99 0.0 0.0 0.00 0.00 0.00 19 1017.9
20260502020705 18 99 0.0 0.0 0.00 0.00 0.00 19 1017.9
20260502020205 18 99 0.0 0.0 0.00 0.00 0.00 19 1017.9
20260502015657 18 99 0.0 0.0 0.00 0.00 0.00 18 1018.1
20260502015156 18 99 0.0 0.0 0.00 0.00 0.00 18 1018.1
20260502014649 18 55 0.0 0.0 0.00 0.00 0.00 18 1018.1
20260502014151 18 51 0.0 0.0 0.00 0.00 0.00 18 1018.1
20260502013650 18 49 0.0 0.0 0.00 0.00 0.00 18 1018.1
20260502013150 18 37 0.0 0.0 0.00 0.00 0.00 18 1018.1
20260502012648 19 34 0.0 0.0 0.00 0.00 0.00 18 1018.2
20260502012148 20 0 0.0 0.0 0.00 0.00 0.00 18 1018.2
20260502011647 19 0 0.0 0.0 0.00 0.00 0.00 18 1018.2
20260502011147 19 0 0.0 0.0 0.00 0.00 0.00 18 1018.3
20260502010647 18 0 0.0 0.0 0.00 0.00 0.00 18 1018.3
20260502010524 18 32 0.0 0.0 0.00 0.00 0.00 19 1018.3
20260502005641 18 23 0.0 0.0 0.00 0.00 0.00 18 1018.4
20260502005140 18 0 0.0 0.0 0.00 0.00 0.00 19 1018.4
20260502004640 19 14 0.0 0.0 0.00 0.00 0.00 18 1018.4
20260502004141 19 18 0.0 0.0 0.00 0.00 0.00 19 1018.4
20260502003637 19 357 0.0 0.0 0.00 0.00 0.00 19 1018.4
20260502003520 19 353 0.0 0.0 0.00 0.00 0.00 20 1018.4
20260502003016 19 32 0.0 0.0 0.00 0.00 0.00 19 1018.4
20260502002513 19 323 0.0 0.0 0.00 0.00 0.00 19 1018.5
20260502001632 19 293 0.0 0.0 0.00 0.00 0.00 19 1018.5
20260502001134 19 310 0.0 0.0 0.00 0.00 0.00 20 1018.5
20260502000633 19 358 0.0 0.0 0.00 0.00 0.00 20 1018.5
20260502000132 19 30 0.0 0.0 0.00 0.00 0.00 20 1018.5
20260501235632 19 258 0.0 0.0 0.00 0.00 0.00 19 1018.5
20260501235131 19 13 0.0 0.0 0.00 0.00 0.00 20 1018.6
20260501234633 18 248 0.0 0.0 0.00 0.00 0.00 19 1018.5
20260501234133 18 28 0.0 0.0 0.00 0.00 0.00 19 1018.6
20260501233634 19 0 0.0 0.0 0.00 0.00 0.00 20 1018.6
20260501233131 18 293 0.0 0.0 0.00 0.00 0.00 21 1018.6
20260501232631 18 327 0.0 0.0 0.00 0.00 0.00 20 1018.6
20260501232132 18 331 0.0 0.0 0.00 0.00 0.00 22 1018.6
20260501231631 18 16 0.0 0.0 0.00 0.00 0.00 20 1018.7
20260501231132 18 34 0.0 0.0 0.00 0.00 0.00 20 1018.9
20260501231015 18 18 0.0 0.0 0.00 0.00 0.00 22 1018.9
20260501230412 18 18 0.0 0.0 0.00 0.00 0.00 22 1018.9
20260501225631 18 302 0.0 0.0 0.00 0.00 0.00 21 1018.9
20260501225129 18 338 0.0 0.0 0.00 0.00 0.00 22 1019.0
20260501224630 18 0 0.0 0.0 0.00 0.00 0.00 22 1019.0
20260501224128 18 319 0.0 0.0 0.00 0.00 0.00 22 1019.1
20260501224014 18 345 0.0 0.0 0.00 0.00 0.00 22 1019.1
20260501223129 18 0 0.0 0.0 0.00 0.00 0.00 21 1019.1
20260501222628 18 0 0.0 0.0 0.00 0.00 0.00 22 1019.2
20260501222130 18 347 0.0 0.0 0.00 0.00 0.00 22 1019.3
20260501221627 18 350 0.0 0.0 0.00 0.00 0.00 23 1019.4
20260501221129 18 338 0.0 0.0 0.00 0.00 0.00 23 1019.4
20260501220629 18 0 0.0 0.0 0.00 0.00 0.00 21 1019.5
20260501220129 18 27 0.0 0.0 0.00 0.00 0.00 22 1019.5
20260501215627 18 25 0.0 0.0 0.00 0.00 0.00 21 1019.7
20260501215127 18 329 0.0 0.0 0.00 0.00 0.00 21 1019.7
20260501214627 18 357 0.0 0.0 0.00 0.00 0.00 21 1019.8
20260501214127 18 358 0.0 0.0 0.00 0.00 0.00 22 1019.8
20260501213626 17 306 0.0 0.0 0.00 0.00 0.00 24 1019.9
20260501213511 17 258 0.0 0.0 0.00 0.00 0.00 22 1020.0
20260501212627 17 296 0.0 0.0 0.00 0.00 0.00 22 1020.0
20260501212127 18 314 0.0 0.0 0.00 0.00 0.00 25 1020.0
20260501211627 17 21 0.0 0.0 0.00 0.00 0.00 24 1020.0
20260501211512 17 341 0.0 0.0 0.00 0.00 0.00 25 1020.1
20260501211010 17 317 0.0 0.0 0.00 0.00 0.00 24 1020.1
20260501210127 17 278 0.0 0.0 0.00 0.00 0.00 25 1020.2